TimeEST,TemperatureF,Dew PointF,Humidity,Sea Level PressureIn,VisibilityMPH,Wind Direction,Wind SpeedMPH,Gust SpeedMPH,PrecipitationIn,Events,Conditions,WindDirDegrees,DateUTC
12:54 AM,51.1,46.9,86,29.74,10.0,ESE,15.0,-,0.00,Rain,Light Rain,110,2013-01-14 05:54:00
1:54 AM,50.0,46.0,86,29.81,10.0,Calm,Calm,-,0.00,Rain,Light Rain,0,2013-01-14 06:54:00
2:54 AM,46.9,44.1,90,29.80,10.0,Calm,Calm,-,0.00,,Mostly Cloudy,0,2013-01-14 07:54:00
3:51 AM,55.4,48.2,77,29.89,10.0,NW,20.7,34.5,0.00,Rain,Light Rain,310,2013-01-14 08:51:00
3:52 AM,54.0,48.0,80,29.88,10.0,NW,24.2,34.5,0.00,Rain,Light Rain,310,2013-01-14 08:52:00
4:03 AM,48.2,42.8,82,29.91,10.0,WNW,21.9,35.7,0.00,Rain,Light Rain,300,2013-01-14 09:03:00
4:13 AM,46.4,41.0,81,29.92,10.0,WNW,24.2,34.5,0.00,Rain,Light Rain,300,2013-01-14 09:13:00
4:54 AM,44.1,39.0,82,29.96,10.0,West,19.6,26.5,0.00,Rain,Light Rain,280,2013-01-14 09:54:00
5:01 AM,44.6,37.4,76,29.97,10.0,West,18.4,25.3,0.00,Rain,Light Rain,270,2013-01-14 10:01:00
5:45 AM,42.8,37.4,81,30.00,10.0,West,11.5,-,0.00,Rain,Light Rain,270,2013-01-14 10:45:00
5:54 AM,43.0,37.9,82,30.00,10.0,West,12.7,-,0.00,Rain,Light Rain,280,2013-01-14 10:54:00
6:54 AM,42.1,37.0,82,30.06,10.0,WNW,8.1,-,0.00,,Overcast,300,2013-01-14 11:54:00
7:16 AM,42.8,37.4,81,30.08,10.0,WNW,9.2,-,N/A,,Mostly Cloudy,290,2013-01-14 12:16:00
7:40 AM,42.8,37.4,81,30.10,10.0,WNW,9.2,-,N/A,,Overcast,290,2013-01-14 12:40:00
7:54 AM,42.1,37.0,82,30.11,10.0,WNW,6.9,-,N/A,,Overcast,290,2013-01-14 12:54:00
8:10 AM,42.8,35.6,76,30.12,10.0,WNW,11.5,20.7,N/A,,Overcast,300,2013-01-14 13:10:00
8:54 AM,41.0,34.0,76,30.16,10.0,WNW,13.8,-,N/A,,Overcast,290,2013-01-14 13:54:00
9:22 AM,39.2,32.0,75,30.18,10.0,WNW,15.0,24.2,N/A,,Overcast,290,2013-01-14 14:22:00
9:54 AM,39.9,30.9,70,30.20,10.0,WNW,13.8,-,N/A,,Overcast,290,2013-01-14 14:54:00
10:14 AM,39.2,30.2,70,30.21,10.0,WNW,16.1,23.0,N/A,,Overcast,300,2013-01-14 15:14:00
10:38 AM,39.2,28.4,65,30.23,10.0,WNW,17.3,24.2,N/A,,Mostly Cloudy,290,2013-01-14 15:38:00
10:54 AM,39.0,28.0,65,30.23,10.0,WNW,17.3,26.5,N/A,,Mostly Cloudy,290,2013-01-14 15:54:00
11:02 AM,39.2,26.6,61,30.23,10.0,WNW,18.4,-,N/A,,Mostly Cloudy,290,2013-01-14 16:02:00
11:54 AM,39.9,26.1,58,30.25,10.0,WNW,15.0,25.3,N/A,,Mostly Cloudy,300,2013-01-14 16:54:00
12:54 PM,37.9,23.0,55,30.25,10.0,WNW,19.6,26.5,N/A,,Overcast,300,2013-01-14 17:54:00
1:54 PM,37.0,21.9,54,30.27,10.0,WNW,12.7,21.9,N/A,,Mostly Cloudy,290,2013-01-14 18:54:00
2:54 PM,36.0,21.9,57,30.29,10.0,WNW,13.8,-,N/A,,Overcast,290,2013-01-14 19:54:00
3:54 PM,36.0,21.0,55,30.28,10.0,West,9.2,-,N/A,,Overcast,280,2013-01-14 20:54:00
4:54 PM,35.1,21.0,57,30.30,10.0,West,11.5,-,N/A,,Overcast,280,2013-01-14 21:54:00
5:54 PM,34.0,23.0,64,30.35,10.0,West,15.0,-,N/A,,Overcast,280,2013-01-14 22:54:00
6:54 PM,34.0,19.9,56,30.35,10.0,WNW,10.4,-,N/A,,Overcast,300,2013-01-14 23:54:00
7:54 PM,33.1,19.0,56,30.37,10.0,West,11.5,-,N/A,,Overcast,280,2013-01-15 00:54:00
8:54 PM,33.1,18.0,54,30.33,10.0,West,5.8,-,N/A,,Overcast,260,2013-01-15 01:54:00
9:54 PM,33.1,19.0,56,30.35,10.0,WSW,11.5,-,N/A,,Overcast,250,2013-01-15 02:54:00
10:54 PM,32.0,19.0,59,30.36,10.0,West,10.4,-,N/A,,Overcast,260,2013-01-15 03:54:00
11:54 PM,32.0,19.0,59,30.34,10.0,West,10.4,-,N/A,,Overcast,260,2013-01-15 04:54:00